User: anonymous   Login
Location: Cutler
(25.6150°N, 80.3110°W)
Time: 09:01:44
(UTC-04:00)
Language:

Vanguard 1 Rocket - Orbit

View from above orbital plane
View from above orbital plane
View from above satellite
View from above satellite

Ground track
Ground track

The orbit data is extracted from the following two-line orbital elements,

1    16U 58002A   18196.87509164 +.00000183 +00000-0 +25450-3 0  9998
2    16 034.2652 023.4373 2026368 155.3373 215.9474 10.48665810385071
Epoch (UTC): 15 July 2018 21:00:07
Eccentricity: 0.2026368
inclination: 34.2652°
perigee height: 652 km
apogee height: 4225 km
right ascension of ascending node: 23.4373°
argument of perigee: 155.3373°
revolutions per day: 10.48665810
mean anomaly at epoch: 215.9474°
orbit number at epoch: 38507

The dashed part of the orbit path shows where the satellite is in the earth's shadow,  

DLR